Wind_Speed
10 10 10 9 9 8 8 7 7 7 7 7 6 5 4 4 4 4 3 3 2 2 1 0 1 1 2 2 3 3 4 5 4 5 5 5 5 6 7 7 6 6 6
10 9 9 9 9 8 7 7 7 7 6 6 6 5 4 3 3 3 3 3 2 2 1 1 1 2 2 3 2 3 4 5 6 5 6 5 5 6 6 6 5 5 5
10 9 8 9 9 8 7 7 6 6 6 6 5 5 4 4 3 4 4 3 3 2 1 1 2 2 2 2 3 3 4 5 5 5 5 6 6 6 6 6 6 6 6
10 9 9 9 8 8 7 6 6 6 5 5 4 4 4 4 4 4 4 3 2 2 2 2 2 3 3 3 3 3 5 6 6 6 5 6 6 6 5 6 6 6 6
11 10 9 8 8 7 7 7 6 5 5 5 4 4 4 4 4 4 4 3 2 2 2 2 2 3 2 2 3 3 4 5 6 6 6 6 6 5 5 5 5 5 6
11 10 9 8 8 7 7 7 6 5 4 4 4 4 4 5 5 4 4 3 3 2 2 2 2 3 2 2 3 3 3 4 5 6 6 6 6 5 5 6 6 5 6
10 10 10 9 8 7 7 6 6 5 4 4 4 4 4 4 4 5 4 2 2 2 3 3 3 3 2 2 3 3 4 4 5 6 7 7 7 7 7 7 6 6 7
10 10 9 8 8 7 6 6 5 5 5 4 4 4 4 4 4 5 3 2 2 3 3 3 3 3 3 3 3 3 4 5 5 5 6 7 7 7 8 7 7 7 7
10 9 8 8 7 7 6 5 5 5 5 4 4 4 4 4 4 4 3 2 3 3 3 3 4 3 3 3 3 4 4 5 5 6 6 7 7 8 8 7 7 7 7
10 8 8 7 6 6 6 6 6 5 6 5 5 4 5 5 5 5 4 3 3 3 4 4 5 5 5 4 4 5 5 5 5 6 6 6 7 8 8 7 7 7 8
10 9 8 7 6 6 6 6 7 6 6 6 5 5 5 4 5 5 4 3 3 4 4 5 5 6 6 6 6 6 6 6 6 6 7 7 8 8 8 8 7 7 8
9 9 8 7 7 6 6 7 8 7 6 6 6 5 5 5 5 5 4 4 5 5 5 5 6 6 6 6 7 7 8 8 8 8 8 7 7 8 9 9 9 8 9
9 9 8 8 7 7 7 8 8 7 6 6 6 6 6 7 6 6 5 6 6 6 6 7 7 7 7 8 8 9 9 9 9 9 9 8 9 9 10 10 10 10 10
9 8 8 8 7 7 8 8 8 8 8 7 7 7 7 8 8 7 7 7 7 7 8 8 8 9 9 10 10 10 10 11 10 10 10 10 10 10 10 11 11 10 11
9 8 7 7 7 7 8 9 9 9 9 7 7 8 8 8 8 8 7 7 8 8 9 9 9 9 10 11 12 11 11 11 11 11 11 11 11 11 11 11 12 12 11
10 9 8 8 8 8 9 9 9 9 9 9 9 9 9 9 10 10 8 8 8 9 10 10 10 10 11 11 12 12 12 12 11 11 12 12 12 12 12 12 12 13 12
10 9 9 9 10 10 10 10 10 10 11 11 11 10 11 11 11 10 10 9 9 10 10 10 10 11 11 12 12 12 13 13 13 13 12 12 13 13 13 13 13 14 14
11 10 10 11 11 11 11 11 11 12 12 13 13 13 13 12 13 12 11 10 10 10 11 11 11 11 12 13 13 13 13 13 13 13 14 14 14 14 14 15 15 15 16
12 13 13 13 12 12 13 13 13 13 14 14 14 14 14 14 14 13 12 12 12 12 12 11 11 12 13 14 14 14 14 13 13 13 15 16 16 16 15 16 17 16 17
13 13 14 14 14 14 14 14 14 14 15 15 15 15 15 15 15 14 14 14 14 14 13 13 13 13 14 15 15 14 14 14 14 14 15 16 17 17 17 16 16 17 18
14 14 14 15 16 15 15 15 15 15 15 15 16 16 16 16 16 15 15 15 15 15 15 15 15 14 15 16 15 14 15 15 15 16 16 17 17 17 17 17 17 17 18
15 15 15 16 16 16 16 16 16 16 16 16 16 16 18 17 17 16 16 16 16 17 17 17 17 16 16 16 15 15 15 15 15 16 17 17 16 17 17 18 18 19 19
15 16 16 16 17 17 17 16 16 16 16 17 17 17 16 17 17 17 16 16 16 17 17 17 17 17 17 17 17 17 16 16 17 17 17 17 17 18 18 19 19 19 20
17 16 17 17 16 16 17 17 17 17 16 17 17 17 17 17 17 17 17 17 17 18 18 18 18 18 19 18 19 19 18 18 18 18 18 18 18 19 20 20 21 21 22
17 17 17 17 16 16 17 17 17 17 17 17 17 17 17 17 17 17 18 18 18 18 19 19 19 20 20 20 20 20 20 21 20 19 19 19 20 20 21 22 23 23 23
17 17 17 17 18 17 17 17 17 17 17 17 16 16 16 17 17 18 18 18 19 19 19 20 20 21 21 21 21 22 22 22 22 22 21 21 21 22 22 23 23 24 24
Wind_Direction
1 2 3 3 5 8 13 22 25 25 28 28 25 22 22 15 5 8 6 8 1 9 19 345 226 239 249 233 213 200 200 199 196 192 195 195 203 204 197 202 210 214 218
356 357 359 2 5 8 10 16 21 21 23 26 26 20 12 5 349 344 348 348 344 351 349 288 250 253 255 257 227 212 199 201 201 200 211 210 209 207 214 216 214 216 217
352 352 354 356 2 6 8 10 16 19 20 21 21 16 5 352 334 325 326 330 325 323 320 289 263 256 251 250 252 247 234 211 212 219 223 222 222 219 223 223 216 221 215
351 350 351 351 356 0 3 7 12 16 14 12 12 7 355 344 333 329 318 309 304 279 272 279 267 258 252 250 252 250 229 211 206 212 217 219 219 216 220 223 221 222 217
351 350 348 348 352 356 358 0 1 5 3 359 359 356 346 338 330 328 320 300 283 267 264 279 268 252 243 251 252 249 230 222 228 229 229 228 222 220 222 228 227 226 223
348 348 347 346 346 348 353 353 353 353 351 346 344 346 338 332 332 323 317 299 276 265 268 273 274 255 260 266 262 255 254 241 240 240 238 230 222 224 228 229 230 232 232
343 346 347 346 345 343 345 346 345 345 345 337 329 329 325 322 325 324 318 305 292 272 266 266 273 271 274 267 263 258 258 260 250 238 238 236 228 231 234 234 234 235 230
338 343 346 347 347 344 339 340 339 339 335 322 316 312 311 314 318 318 315 296 279 263 257 261 270 268 271 268 258 259 264 262 264 250 246 245 236 236 237 235 238 237 235
332 337 341 343 345 344 341 339 339 336 326 315 308 301 302 312 313 301 293 289 280 275 269 261 262 258 266 268 265 270 267 269 264 253 250 246 239 241 238 237 240 239 239
331 334 336 337 336 337 337 331 326 323 319 312 306 300 298 303 308 306 289 282 279 277 271 265 257 257 259 264 265 269 271 267 259 250 251 248 240 241 238 237 245 239 242
330 331 333 332 328 325 324 323 316 310 308 304 298 292 294 297 299 297 283 271 266 264 264 264 260 261 259 261 264 266 267 267 262 257 253 253 250 244 241 239 248 248 245
328 328 328 328 326 321 313 313 309 303 299 296 291 283 283 285 288 286 272 265 263 261 263 266 267 266 263 261 263 266 267 265 263 265 257 254 253 252 250 247 247 247 243
323 325 323 317 316 318 316 310 300 296 295 290 284 277 273 274 279 278 269 266 265 264 265 269 269 267 264 264 264 265 266 265 262 264 261 256 255 257 252 248 245 243 240
320 320 320 318 313 311 312 308 298 292 291 290 278 274 272 269 273 273 272 269 267 266 268 271 271 270 268 267 267 265 263 262 262 262 261 259 256 256 254 248 250 250 247
319 315 317 320 316 315 310 304 293 291 286 283 283 274 268 265 269 269 268 271 267 264 266 268 268 269 270 267 266 265 265 264 263 262 261 260 258 258 256 252 250 251 248
315 314 312 314 311 310 309 302 293 292 286 282 279 277 274 269 267 270 271 271 269 263 263 267 266 268 272 270 269 269 269 267 263 262 262 260 260 259 256 255 256 255 256
313 312 310 308 307 302 298 294 290 289 287 282 279 278 278 272 267 269 271 269 271 269 268 268 266 267 272 275 273 270 269 266 264 261 261 262 260 260 255 254 258 258 258
309 306 306 305 302 299 296 291 286 286 283 281 277 273 274 271 268 265 267 263 266 269 271 271 269 268 271 273 272 270 268 268 267 263 261 262 263 263 258 257 257 258 259
301 299 301 300 299 298 295 290 286 284 282 281 279 276 273 269 268 266 265 262 263 266 269 271 271 271 273 274 273 271 267 265 268 266 264 263 264 264 262 261 260 260 258
296 295 294 294 292 294 292 288 287 284 281 281 282 279 272 266 265 265 265 262 263 265 268 271 272 272 273 274 274 272 269 266 265 266 268 264 264 264 263 262 260 259 256
290 292 292 291 294 294 289 287 286 283 281 279 280 274 270 265 263 263 263 263 264 265 267 269 272 273 273 275 276 276 271 269 267 268 269 267 267 262 261 262 264 264 259
289 292 293 292 292 291 287 284 284 281 277 278 278 279 270 264 261 259 260 262 264 265 266 267 269 270 273 275 276 276 276 274 272 272 270 270 268 264 263 262 262 263 260
287 289 291 291 289 288 285 282 282 281 280 277 276 276 272 267 264 263 262 263 265 266 267 268 268 268 269 271 272 272 273 274 272 272 270 269 267 266 264 264 263 263 261
283 286 291 292 289 287 285 283 281 280 278 276 275 274 274 272 267 265 265 265 266 265 265 267 268 268 269 270 270 270 270 270 271 270 269 269 267 267 266 265 264 264 263
278 281 287 292 292 289 285 284 281 279 277 275 274 273 271 269 268 267 266 266 268 268 266 267 269 270 270 271 270 269 269 269 270 269 268 268 268 269 268 266 265 264 264
278 280 282 290 292 291 287 284 282 282 279 278 275 273 270 265 265 266 267 267 267 267 266 267 270 272 272 273 272 270 270 269 268 268 267 266 267 269 269 267 266 265 266
Height
5876 5875 5874 5873 5872 5871 5870 5869 5869 5869 5868 5868 5868 5868 5868 5868 5868 5868 5868 5868 5869 5869 5870 5871 5871 5871 5872 5872 5873 5873 5874 5875 5876 5876 5877 5878 5879 5880 5881 5882 5884 5885 5885
5876 5875 5874 5873 5872 5871 5870 5869 5869 5868 5868 5868 5868 5868 5868 5868 5868 5868 5868 5868 5869 5869 5870 5871 5871 5872 5872 5873 5873 5873 5874 5875 5876 5876 5877 5878 5879 5880 5881 5882 5883 5884 5885
5876 5875 5874 5873 5872 5871 5870 5869 5869 5868 5868 5868 5868 5868 5868 5867 5867 5867 5867 5868 5868 5869 5870 5871 5871 5871 5872 5872 5873 5873 5874 5874 5875 5876 5877 5878 5879 5880 5881 5882 5883 5884 5885
5876 5875 5874 5873 5871 5870 5870 5869 5868 5868 5868 5868 5868 5868 5867 5867 5867 5867 5867 5868 5868 5869 5869 5870 5871 5871 5872 5872 5873 5873 5873 5874 5875 5876 5877 5878 5879 5879 5880 5881 5882 5883 5884
5875 5874 5873 5872 5871 5870 5869 5869 5868 5868 5868 5867 5867 5867 5867 5867 5867 5867 5867 5867 5868 5868 5869 5870 5870 5871 5871 5872 5872 5873 5873 5874 5875 5875 5876 5877 5878 5879 5880 5881 5881 5882 5883
5875 5874 5872 5871 5870 5869 5869 5868 5868 5867 5867 5867 5867 5866 5866 5866 5866 5866 5866 5867 5867 5868 5869 5869 5870 5870 5871 5871 5872 5872 5873 5873 5874 5875 5876 5877 5877 5878 5879 5880 5881 5882 5883
5874 5873 5871 5870 5869 5868 5868 5867 5867 5867 5867 5866 5866 5866 5866 5866 5865 5865 5866 5866 5867 5867 5868 5869 5870 5870 5871 5871 5871 5871 5872 5873 5874 5874 5875 5876 5877 5878 5878 5879 5880 5881 5882
5873 5872 5871 5869 5868 5868 5867 5867 5866 5866 5866 5866 5865 5865 5865 5865 5865 5865 5865 5865 5866 5867 5867 5868 5869 5870 5870 5871 5871 5871 5872 5872 5873 5873 5874 5875 5876 5877 5877 5878 5879 5880 5881
5872 5871 5870 5869 5868 5867 5866 5866 5866 5866 5865 5865 5865 5864 5864 5864 5864 5864 5864 5865 5865 5866 5867 5867 5868 5869 5869 5870 5870 5871 5871 5872 5873 5873 5874 5874 5875 5876 5876 5877 5878 5879 5879
5871 5870 5869 5868 5867 5866 5866 5865 5865 5865 5864 5864 5864 5863 5864 5864 5864 5864 5864 5864 5865 5865 5866 5866 5867 5868 5869 5869 5870 5870 5871 5871 5872 5872 5873 5873 5874 5875 5875 5876 5877 5877 5878
5870 5869 5868 5867 5866 5865 5864 5864 5864 5863 5863 5863 5863 5863 5863 5863 5863 5863 5863 5863 5864 5864 5865 5865 5866 5867 5867 5868 5869 5869 5870 5870 5871 5871 5871 5872 5873 5873 5874 5874 5875 5876 5876
5869 5868 5866 5866 5864 5864 5863 5863 5862 5862 5862 5862 5862 5862 5862 5862 5862 5862 5862 5863 5863 5863 5864 5864 5865 5865 5866 5867 5867 5868 5868 5868 5869 5869 5870 5871 5871 5871 5872 5873 5874 5874 5875
5867 5866 5865 5864 5863 5862 5862 5861 5860 5860 5860 5860 5860 5861 5861 5861 5860 5861 5861 5861 5862 5862 5863 5863 5863 5864 5865 5865 5866 5866 5866 5867 5867 5868 5868 5869 5869 5870 5870 5871 5872 5873 5874
5866 5864 5863 5862 5861 5861 5860 5859 5859 5859 5859 5859 5859 5859 5859 5859 5859 5859 5859 5860 5860 5860 5861 5861 5862 5862 5863 5863 5864 5864 5864 5865 5865 5865 5866 5866 5867 5868 5868 5869 5870 5871 5872
5864 5863 5862 5861 5860 5859 5858 5857 5857 5857 5857 5857 5857 5857 5857 5857 5858 5857 5857 5858 5858 5858 5859 5859 5860 5860 5860 5861 5861 5861 5862 5862 5863 5863 5863 5864 5865 5865 5866 5867 5867 5868 5869
5862 5861 5860 5859 5858 5857 5857 5856 5855 5855 5855 5855 5854 5855 5855 5855 5855 5855 5855 5855 5856 5856 5856 5857 5857 5858 5858 5858 5858 5859 5859 5859 5860 5860 5861 5861 5862 5863 5863 5864 5865 5866 5867
5860 5859 5858 5857 5856 5855 5854 5854 5853 5853 5852 5852 5852 5852 5852 5853 5853 5853 5853 5853 5853 5853 5854 5854 5855 5855 5856 5856 5856 5856 5856 5856 5857 5857 5858 5859 5859 5860 5861 5861 5862 5863 5864
5857 5856 5855 5855 5854 5853 5852 5851 5851 5850 5850 5849 5849 5849 5849 5849 5850 5850 5851 5851 5851 5851 5851 5852 5852 5852 5852 5853 5853 5853 5853 5853 5853 5854 5855 5855 5856 5857 5857 5858 5859 5859 5860
5854 5853 5853 5852 5851 5850 5849 5848 5847 5847 5847 5846 5846 5846 5846 5846 5846 5847 5848 5848 5848 5848 5848 5849 5849 5849 5849 5849 5849 5849 5849 5850 5850 5850 5851 5852 5853 5853 5854 5854 5854 5855 5856
5851 5850 5850 5849 5848 5846 5845 5844 5844 5843 5843 5842 5842 5842 5842 5842 5843 5843 5844 5845 5845 5845 5845 5845 5845 5846 5846 5846 5845 5845 5845 5846 5846 5847 5847 5848 5849 5849 5850 5850 5850 5851 5852
5847 5847 5846 5845 5844 5842 5842 5841 5839 5839 5839 5838 5838 5838 5838 5838 5839 5839 5840 5841 5841 5841 5842 5842 5842 5842 5842 5842 5842 5841 5842 5842 5843 5843 5844 5844 5844 5845 5845 5846 5846 5846 5847
5844 5843 5842 5840 5839 5838 5837 5836 5835 5835 5834 5834 5834 5834 5834 5834 5834 5835 5836 5836 5837 5837 5838 5838 5838 5838 5838 5837 5838 5838 5838 5839 5839 5839 5839 5840 5840 5841 5841 5841 5842 5842 5843
5839 5839 5837 5836 5835 5834 5833 5831 5831 5830 5830 5830 5830 5830 5830 5830 5830 5831 5831 5832 5833 5833 5833 5833 5833 5834 5834 5833 5833 5834 5834 5835 5835 5835 5835 5835 5836 5836 5836 5836 5837 5837 5838
5835 5834 5833 5831 5830 5829 5828 5827 5827 5826 5826 5825 5825 5825 5825 5825 5826 5826 5827 5827 5828 5828 5829 5829 5829 5829 5829 5829 5829 5829 5829 5830 5830 5831 5831 5831 5830 5831 5831 5831 5831 5832 5832
5830 5829 5828 5827 5826 5825 5824 5823 5822 5822 5821 5820 5820 5820 5820 5820 5821 5821 5822 5822 5823 5823 5823 5824 5824 5824 5824 5824 5824 5824 5824 5824 5824 5825 5825 5826 5825 5825 5825 5825 5826 5826 5826
5825 5824 5822 5822 5821 5820 5819 5818 5817 5817 5816 5816 5816 5815 5815 5816 5816 5816 5817 5817 5818 5818 5818 5818 5818 5818 5819 5818 5818 5818 5818 5818 5819 5819 5819 5819 5819 5820 5819 5819 5819 5820 5820